This demonstration page uses our WeatherBlox Daily Observations layout. Learn more.

36.17497, -115.13722

Hourly Observations for April 7, 2015

Temp ( °F °C ) Dew Point ( °F °C ) Humidity (%) Winds ( mph kmh ) Pressure ( in mb ) Visibility ( mi km ) Precip ( " mm )
12:53 am 00:53 Clear 61 16.1 13 -10.6 15 15 Calm 29.79 1009 10 16.0934 0 0
1:53 am 01:53 Clear 59 15 15 -9.4 18 18 SSW 8 13 29.8 1009 10 16.0934 0 0
2:53 am 02:53 Clear 58 14.4 18 -7.8 21 21 S 8 13 29.8 1009 10 16.0934 0 0
3:53 am 03:53 Clear 56 13.3 19 -7.2 24 24 SSW 6 9 29.81 1010 10 16.0934 0 0
4:53 am 04:53 Clear 55 12.8 19 -7.2 24 24 SSW 15 24 29.82 1010 10 16.0934 0 0
5:53 am 05:53 Clear 54 12.2 19 -7.2 25 25 SSW 22 35 29.82 1010 10 16.0934 0 0
6:53 am 06:53 Sunny 53 11.7 19 -7.2 26 26 SSW 22 35 29.84 1011 10 16.0934 0 0
7:53 am 07:53 Sunny 55 12.8 17 -8.3 22 22 SW 22 35 29.85 1011 10 16.0934 0 0
8:53 am 08:53 Sunny 59 15 13 -10.6 16 16 SW 20 31 29.85 1011 10 16.0934 0 0
9:53 am 09:53 Sunny 61 16.1 9 -12.8 13 13 SW 26 43 29.86 1011 10 16.0934 0 0
10:53 am 10:53 Sunny 65 18.3 1 -17.2 8 8 SW 18 30 29.87 1012 10 16.0934 0 0
11:53 am 11:53 Sunny 67 19.4 -2 -18.9 6 6 SSW 20 31 29.86 1011 10 16.0934 0 0
12:53 pm 12:53 Sunny 68 20 4 -15.6 8 8 S 18 30 29.85 1011 10 16.0934 0 0
1:53 pm 13:53 Sunny 70 21.1 6 -14.4 8 8 SSW 21 33 29.84 1010 10 16.0934 0 0
2:53 pm 14:53 Sunny 70 21.1 6 -14.4 8 8 SSW 24 39 29.82 1010 10 16.0934 0 0
3:53 pm 15:53 Sunny 70 21.1 4 -15.6 7 7 SW 23 37 29.79 1009 10 16.0934 0 0
4:53 pm 16:53 Sunny 70 21.1 9 -12.8 9 9 WSW 21 33 29.79 1009 10 16.0934 0 0
5:53 pm 17:53 Sunny 68 20 14 -10 12 12 SW 16 26 29.78 1009 10 16.0934 0 0
6:53 pm 18:53 Sunny 66 18.9 15 -9.4 14 14 SSW 18 30 29.77 1008 10 16.0934 0 0
7:53 pm 19:53 Clear 65 18.3 14 -10 14 14 SSW 16 26 29.77 1008 10 16.0934 0 0
8:53 pm 20:53 Clear 62 16.7 28 -2.2 28 28 SW 20 31 29.79 1009 10 16.0934 0 0
9:53 pm 21:53 Mostly Cloudy 61 16.1 30 -1.1 31 31 WSW 14 22 29.81 1009 10 16.0934 0 0
10:53 pm 22:53 Cloudy 58 14.4 31 -0.6 36 36 WSW 9 15 29.82 1010 10 16.0934 0 0
11:53 pm 23:53 Mostly Cloudy 56 13.3 30 -1.1 37 37 WSW 10 17 29.83 1010 10 16.0934 0 0

Powered by AerisWeather